This is the latest recevied weather packets stored in our database for station/object IW9DKU-3. If no packets are shown the sender has not sent any weather packets the latest 10 day(s).
| Time | Temp. | Humidity | Pressure | Rain* | Wind** | Luminosity | Snow |
|---|---|---|---|---|---|---|---|
| 1778022616 | 20° C | 57% | 1024.1 hPa | - | - | - | - |
| 1778021413 | 20° C | 55% | 1024.2 hPa | - | - | - | - |
| 1778020209 | 20° C | 49% | 1024.2 hPa | - | - | - | - |
| 1778019005 | 20° C | 54% | 1024.4 hPa | - | - | - | - |
| 1778017801 | 20.56° C | 61% | 1024.6 hPa | - | - | - | - |
| 1778016598 | 20.56° C | 61% | 1024.8 hPa | - | - | - | - |
| 1778015394 | 20.56° C | 61% | 1024.9 hPa | - | - | - | - |
| 1778014190 | 20.56° C | 61% | 1025 hPa | - | - | - | - |
| 1778012986 | 20.56° C | 61% | 1025.1 hPa | - | - | - | - |
| 1778011783 | 20.56° C | 61% | 1025.3 hPa | - | - | - | - |
| 1778009673 | 21.11° C | 60% | 1025 hPa | - | - | - | - |
| 1778009375 | 21.11° C | 60% | 1025 hPa | - | - | - | - |
| 1778008171 | 21.11° C | 60% | 1024.7 hPa | - | - | - | - |
| 1778006967 | 21.11° C | 60% | 1024.7 hPa | - | - | - | - |
| 1778005764 | 21.11° C | 60% | 1024.6 hPa | - | - | - | - |
| 1778004560 | 21.67° C | 59% | 1024.5 hPa | - | - | - | - |
| 1778003356 | 21.67° C | 59% | 1024.7 hPa | - | - | - | - |
| 1778002152 | 21.67° C | 58% | 1024.7 hPa | - | - | - | - |
| 1778000949 | 22.22° C | 58% | 1024.6 hPa | - | - | - | - |
| 1777999745 | 22.22° C | 57% | 1024.7 hPa | - | - | - | - |
| 1777998541 | 22.22° C | 57% | 1024.7 hPa | - | - | - | - |
| 1777997337 | 22.22° C | 57% | 1024.7 hPa | - | - | - | - |
| 1777996134 | 22.22° C | 56% | 1024.7 hPa | - | - | - | - |
| 1777994930 | 22.78° C | 56% | 1024.7 hPa | - | - | - | - |
| 1777993726 | 22.78° C | 55% | 1024.7 hPa | - | - | - | - |
* Rain since midnight (hover to see other rain measurements)
** Current wind speed in m/s (hover to see current wind gust speed)